Wind_Speed
22 22 21 22 24 24 23 22 23 22 23 23 23 23 23 22 22 21 20 21 21 21 20 20 19 17 15 13 12 12 13 15 16 16 17 17 18 18 19 19 19 19 19 19 18 18 18 19 19 19 20 20 20 20 21 20 19 19 19 19 19 20 19 17 18 20 18 17 17 16 15 15 15 15 14 12 12 11 11 11 12 12 12 13 13
24 24 24 23 22 21 21 21 22 23 22 22 21 21 20 21 21 21 21 23 24 23 22 21 20 18 16 14 13 13 14 15 16 16 17 17 18 19 20 20 20 20 20 19 19 19 20 20 21 21 21 21 21 21 21 22 21 20 20 20 20 21 20 17 18 21 20 19 18 18 17 16 16 16 15 14 13 13 12 13 13 14 15 15 15
27 25 26 25 21 19 18 18 20 21 19 19 19 19 19 21 21 22 23 24 25 24 24 22 20 19 17 17 16 16 16 16 16 17 17 18 19 19 20 20 20 21 20 20 20 20 20 20 20 20 20 20 21 21 22 22 22 21 21 21 21 22 20 18 19 21 21 20 20 19 18 18 17 17 17 15 15 15 15 15 15 16 17 17 17
29 28 26 24 21 19 18 18 19 20 18 19 19 18 20 21 22 22 23 23 23 24 24 21 19 18 18 17 17 16 16 16 17 18 18 18 19 19 18 18 18 19 20 20 21 20 20 20 20 20 20 21 21 22 23 23 22 22 23 22 22 22 21 20 20 21 22 21 21 20 20 20 19 18 18 18 17 17 18 18 18 18 19 19 20
29 30 29 25 23 21 20 19 20 21 20 19 19 19 20 21 21 22 22 22 22 22 22 20 19 18 17 17 16 16 16 16 17 18 18 19 18 18 18 18 18 18 19 20 21 20 20 19 20 20 20 21 21 22 23 23 23 24 24 24 23 23 21 21 20 21 22 22 22 21 21 22 21 20 20 21 20 20 20 21 20 20 20 21 22
28 30 29 26 23 21 21 19 19 21 20 19 19 20 20 21 21 22 22 21 22 22 21 21 20 19 18 18 18 18 17 17 17 18 18 19 18 18 18 18 18 19 19 20 20 20 20 20 20 20 20 21 21 22 23 23 24 24 24 25 24 24 23 23 22 21 21 23 23 22 22 23 23 22 22 22 23 22 22 23 23 23 22 22 24
28 28 27 25 23 22 22 20 20 22 22 20 20 19 20 21 22 22 22 22 23 23 22 22 22 21 20 20 20 20 19 18 17 18 18 19 19 19 19 19 18 18 19 19 20 20 21 21 21 21 21 21 21 21 22 23 23 23 24 25 24 24 24 25 25 24 23 23 24 23 23 23 25 25 24 23 23 24 25 24 24 26 25 23 25
27 26 26 26 24 22 22 21 20 21 23 22 20 19 20 21 22 22 22 23 24 24 23 24 23 22 22 22 22 22 21 19 18 18 19 19 19 19 19 19 18 19 19 20 20 21 22 22 22 21 21 21 20 21 21 22 23 23 24 26 25 24 25 26 25 25 25 24 24 24 23 23 25 26 26 24 24 25 27 27 26 27 28 26 26
26 27 27 27 24 22 23 22 21 21 22 22 21 21 21 21 21 22 22 23 25 25 25 25 24 23 23 22 22 23 22 21 19 19 20 19 19 19 20 20 20 20 20 21 21 22 22 23 23 22 22 21 21 21 23 24 25 26 26 27 27 26 26 26 26 26 26 25 25 25 25 24 25 26 27 27 27 27 27 28 28 28 30 29 28
21 21 25 27 26 25 25 24 24 25 24 23 23 23 23 22 22 22 22 24 25 26 26 27 26 25 25 24 24 24 23 22 21 21 21 20 20 20 21 21 21 21 21 22 22 23 23 23 23 23 23 23 23 24 25 26 27 28 28 29 29 28 28 28 27 27 27 26 26 26 26 27 27 26 27 28 29 28 27 28 30 30 31 32 31
17 19 25 28 26 26 26 25 26 27 26 25 24 24 25 24 23 23 23 25 26 26 26 27 26 25 25 25 25 24 23 23 23 22 22 22 22 22 22 22 23 23 23 24 24 23 22 22 23 24 24 24 25 26 26 26 27 28 29 29 29 29 29 29 28 28 27 27 27 27 28 29 29 29 29 29 29 30 31 31 32 32 33 34 34
20 23 27 28 27 27 26 25 25 27 27 25 24 25 26 26 24 24 24 25 26 26 26 26 26 25 24 23 23 23 23 23 22 22 23 24 24 24 23 23 23 24 25 25 23 21 21 20 20 23 26 27 27 27 26 27 27 28 29 29 29 29 29 29 29 28 28 29 29 29 30 31 31 31 32 32 31 33 34 35 34 34 35 36 37
19 21 23 25 26 27 25 24 25 26 26 25 25 25 24 24 23 23 22 23 24 26 28 28 27 26 24 22 22 22 23 23 22 23 24 24 25 25 25 24 24 24 24 24 22 19 19 18 17 21 25 26 27 28 29 29 29 29 29 29 29 29 29 29 29 29 30 31 31 32 33 34 33 34 35 34 33 35 36 36 36 37 38 39 39
16 16 17 19 22 23 22 23 25 25 25 24 24 23 22 21 21 20 20 20 21 23 26 28 28 27 25 24 23 23 24 24 23 24 25 25 26 27 27 26 25 24 24 24 22 20 20 19 20 22 22 22 23 27 30 30 31 32 32 31 31 30 30 29 29 30 31 32 33 33 34 35 35 35 35 34 35 37 38 38 38 40 40 39 40
14 14 14 16 20 22 23 24 25 25 24 23 23 22 21 20 20 20 20 20 19 19 20 22 24 24 24 26 27 26 26 26 26 26 26 27 29 29 29 28 26 26 26 24 23 23 23 22 24 25 25 24 23 25 27 29 31 33 33 33 33 33 33 32 32 33 34 35 35 35 36 36 37 36 36 36 37 38 39 39 40 41 41 40 41
12 13 13 14 16 18 20 21 23 23 22 22 22 21 19 19 20 21 20 20 19 18 17 17 18 18 19 22 25 25 25 25 25 25 26 28 30 29 29 29 28 27 25 23 24 25 25 25 26 27 28 29 28 28 30 31 32 33 33 34 34 34 34 34 34 34 36 37 37 37 37 38 38 39 39 40 40 40 40 41 42 43 42 43 44
13 13 13 13 12 12 13 14 16 18 20 20 20 20 20 21 22 21 20 21 20 19 19 17 16 15 16 17 19 20 20 20 21 22 23 25 26 25 25 25 24 23 22 23 25 26 26 27 29 29 30 30 31 32 34 35 34 34 35 36 36 36 36 35 35 36 38 39 39 39 40 40 40 41 42 43 43 43 44 45 45 45 45 45 44
16 16 15 15 14 14 13 13 13 14 15 16 16 18 19 20 20 21 21 22 22 21 20 18 17 16 16 16 17 18 19 20 21 22 23 23 23 23 22 21 21 22 23 24 26 27 28 29 31 31 29 30 32 34 37 38 38 38 38 38 38 38 38 38 38 38 40 41 41 41 42 42 42 43 44 44 45 46 47 48 47 47 46 46 44
20 19 18 17 17 16 17 16 16 16 16 17 17 17 18 18 18 19 20 20 21 20 19 18 18 18 18 18 18 19 19 20 21 22 23 23 23 23 23 22 22 23 24 26 27 28 28 30 31 32 32 34 36 38 39 39 40 40 41 40 39 39 40 40 40 41 42 44 45 44 45 45 45 46 46 47 48 49 50 51 49 48 47 48 47
21 21 20 19 18 18 19 19 19 20 20 21 21 21 20 20 19 19 21 22 21 20 20 20 20 20 20 20 20 21 21 21 22 22 23 23 24 24 24 25 26 26 27 28 29 30 30 32 34 35 36 38 39 40 40 40 40 41 42 41 41 41 42 43 43 44 44 45 46 47 48 48 48 49 50 51 51 51 51 51 51 49 49 51 52
23 22 21 21 20 20 20 20 20 21 21 20 21 21 21 21 21 22 24 25 24 24 24 24 23 23 23 22 23 23 23 24 24 25 25 25 25 26 27 28 29 30 30 31 31 32 32 34 36 38 39 40 41 42 42 42 42 43 43 43 44 45 46 47 47 47 46 46 47 48 50 51 52 52 53 53 53 52 52 53 53 53 54 56 58
27 26 24 23 23 22 22 22 22 22 22 22 21 21 22 22 23 24 25 26 27 27 28 28 27 26 26 25 26 26 26 27 27 28 28 28 28 29 30 31 33 33 34 34 34 33 34 35 37 39 41 43 44 45 45 45 46 47 48 49 50 51 51 51 50 49 50 50 52 53 53 54 55 56 56 55 55 54 55 56 58 59 60 62 62
29 28 27 26 25 24 24 24 24 23 23 23 23 23 23 24 24 25 26 27 28 29 30 30 30 30 28 28 28 28 29 29 30 30 30 31 31 32 33 34 35 36 37 37 37 38 39 40 40 41 43 44 46 47 48 48 49 50 51 53 53 54 54 53 52 52 53 54 55 56 56 56 57 58 58 58 58 59 59 61 62 64 65 65 65
28 27 28 28 27 27 27 26 26 26 26 25 25 25 26 26 26 27 27 28 28 29 30 30 30 30 29 29 30 29 29 30 31 31 32 32 33 34 35 36 37 38 38 39 39 41 42 42 41 42 43 44 46 48 49 50 51 53 54 55 56 56 57 57 57 58 58 59 60 61 62 62 63 64 65 66 66 65 66 67 68 69 69 69 69
27 26 26 27 28 29 30 29 30 30 30 30 29 28 28 27 27 28 28 29 30 30 31 31 31 31 31 31 31 31 31 31 33 33 33 34 35 36 37 37 38 38 39 39 40 41 42 43 43 43 44 45 47 48 50 51 53 55 57 58 59 60 60 61 61 62 63 63 64 66 67 67 67 67 67 67 67 67 67 67 67 67 67 67 67
30 28 27 28 29 30 32 33 33 33 33 33 33 31 30 30 29 29 30 30 31 32 32 32 32 32 32 33 33 33 33 33 34 35 36 37 37 37 37 38 39 39 40 40 41 42 42 43 45 46 48 49 51 52 53 55 56 58 59 60 60 61 62 63 63 64 65 66 67 67 68 68 69 68 68 68 68 67 67 66 65 64 64 63 63
31 30 29 30 31 31 32 34 35 36 36 36 35 34 33 32 32 32 32 32 32 33 33 33 33 34 34 34 35 35 34 34 35 37 37 38 38 38 39 39 40 41 41 42 42 43 44 45 47 48 50 52 54 56 57 58 60 61 61 62 63 64 64 65 66 67 67 68 69 69 69 70 70 70 70 70 69 69 68 67 67 67 67 68 69
32 32 31 31 31 31 32 32 33 34 35 36 36 35 34 34 33 33 33 33 33 33 33 33 34 33 33 34 35 35 34 35 37 37 38 38 39 40 41 41 42 43 43 44 45 46 47 48 49 50 52 53 55 56 57 59 61 62 63 64 64 65 66 67 67 68 69 69 70 71 71 71 71 72 72 71 71 71 70 70 69 69 70 71 72
34 34 34 33 32 32 31 31 31 31 32 33 34 33 33 33 33 33 33 33 33 33 33 33 33 33 34 34 34 34 34 36 37 37 38 39 40 40 41 42 43 44 45 46 48 49 50 51 53 54 55 56 57 58 60 61 62 63 64 65 66 67 68 68 68 68 69 69 70 70 71 71 71 71 72 72 72 72 71 71 70 70 69 70 70
35 35 34 34 33 32 32 31 31 31 31 32 32 33 33 32 32 32 33 34 34 34 34 34 34 34 34 34 34 35 36 37 38 39 40 41 42 43 44 45 46 47 48 50 51 52 53 54 56 57 58 59 60 62 62 63 63 64 65 66 66 67 67 67 67 67 66 66 66 66 66 67 67 67 67 68 68 68 68 68 68 68 69 70 70
34 34 33 33 32 31 31 31 30 31 31 32 32 32 32 32 32 32 33 33 34 34 34 34 34 35 35 36 37 38 39 40 42 43 44 45 46 46 47 48 49 50 52 53 54 55 57 57 58 59 61 62 63 63 63 63 63 64 64 64 64 63 63 63 63 62 62 62 62 62 63 63 63 63 63 63 64 63 64 63 64 65 66 67 67
32 32 32 31 31 31 30 30 29 29 30 30 30 31 31 32 32 33 33 34 35 35 36 36 37 38 39 40 41 42 43 44 45 46 47 48 48 49 50 51 52 53 55 56 57 58 59 59 60 61 61 62 62 62 62 61 61 61 61 61 61 61 61 60 59 59 59 59 60 60 60 60 60 60 59 59 59 59 59 59 59 59 59 59 60
31 31 31 31 30 30 30 30 30 30 30 30 31 31 32 33 33 34 35 36 37 38 39 39 40 40 41 41 42 43 44 45 46 47 48 49 51 52 53 54 55 56 57 58 58 59 59 59 59 59 59 60 60 60 59 59 59 59 59 59 59 59 59 58 58 57 57 56 56 57 57 57 57 56 56 57 57 56 56 55 55 54 53 53 52
31 32 32 32 32 32 32 32 32 32 33 33 34 34 35 35 36 37 38 38 39 39 40 40 41 41 42 43 44 45 46 47 48 49 50 51 52 53 54 55 55 56 56 57 57 57 57 57 57 57 57 58 58 57 57 57 57 57 57 57 56 56 56 55 54 54 53 53 53 54 55 55 55 55 56 56 56 56 56 55 53 52 50 49 47
33 33 33 33 33 34 34 34 34 35 35 35 35 36 36 37 37 38 38 39 39 39 40 41 42 42 43 44 45 46 47 47 48 49 50 50 51 51 52 52 53 53 54 54 54 55 55 55 55 55 55 55 55 54 54 54 54 53 52 52 51 51 51 50 50 50 51 52 52 53 54 55 55 56 57 57 57 56 55 53 50 47 43 41 39
33 33 33 33 33 34 34 34 35 35 35 35 35 36 36 37 37 38 38 39 39 39 40 41 41 42 42 43 44 44 45 45 46 47 47 48 48 49 49 50 51 51 51 52 52 52 52 52 52 52 52 51 50 50 49 48 47 47 47 47 47 47 48 48 48 49 50 52 53 54 54 55 55 55 54 53 52 51 49 46 43 39 37 35 34
33 33 33 33 34 34 34 34 34 34 35 35 35 36 36 37 37 38 38 39 39 39 39 40 40 41 41 42 43 43 43 44 44 45 46 46 47 48 49 49 49 49 49 49 49 49 48 48 47 47 46 45 44 43 43 43 43 43 43 44 45 46 46 46 47 48 50 52 52 52 51 49 48 46 44 43 42 40 37 35 34 32 32 32 33
34 34 35 35 35 35 35 35 35 35 35 35 36 36 37 37 37 37 38 38 39 39 39 40 41 41 41 41 41 42 42 43 43 44 45 46 46 47 47 47 46 46 45 45 44 43 43 42 41 40 40 39 39 39 40 40 41 41 42 42 43 44 45 45 47 48 48 48 46 43 41 37 34 31 30 29 27 25 23 23 24 26 27 29 30
37 37 37 37 37 37 36 36 36 36 36 36 37 37 37 37 37 38 38 39 39 39 39 40 40 40 40 40 40 41 42 42 43 43 43 44 44 43 43 42 41 40 40 39 38 38 37 36 36 36 36 36 37 37 38 38 39 40 40 41 41 42 43 44 44 44 42 39 36 33 30 26 22 20 19 18 18 18 17 18 20 21 22 22 23
39 39 39 39 38 38 38 37 37 37 37 36 36 36 37 37 37 37 38 38 38 38 38 38 38 38 39 39 40 40 41 41 41 41 41 40 39 38 37 36 36 35 34 33 33 32 32 33 33 34 35 35 36 37 38 38 38 39 39 40 40 40 41 41 39 36 33 31 29 28 24 19 17 16 15 15 16 16 17 18 20 20 20 19 20
40 40 39 39 38 38 37 37 36 36 36 35 35 35 35 36 36 36 37 37 37 37 37 38 38 38 38 38 38 38 38 38 38 37 36 35 34 33 32 31 30 30 29 29 29 30 31 32 33 34 35 36 37 38 38 39 39 39 38 38 39 39 38 36 33 30 27 27 27 25 22 19 18 18 18 18 17 16 16 18 21 22 23 24 25
38 38 37 37 37 36 36 35 35 35 35 35 35 35 35 35 36 36 37 37 37 37 37 37 36 36 36 36 36 35 35 34 33 32 31 30 29 28 28 27 27 27 27 28 29 30 32 33 34 36 37 38 38 39 39 39 39 38 37 37 37 37 35 32 28 25 24 24 22 19 17 16 17 17 17 17 17 16 17 19 22 24 25 26 26
36 35 35 35 35 34 34 34 34 34 34 34 35 35 35 35 35 36 36 36 35 35 35 34 34 34 33 33 32 32 31 30 29 28 27 26 26 25 25 25 25 26 27 28 30 31 33 34 36 37 38 39 39 39 38 37 36 35 34 34 34 34 32 28 25 22 21 21 19 17 16 16 15 14 13 13 15 17 19 21 22 24 24 23 22
34 34 34 33 33 33 33 33 33 34 34 34 35 35 35 34 34 34 34 34 33 33 32 32 31 31 30 29 29 28 27 26 25 24 24 24 24 24 24 24 25 26 28 30 31 33 34 36 37 38 38 38 38 37 35 33 32 31 31 31 31 30 28 26 23 21 20 19 18 17 17 17 17 15 13 13 15 17 19 20 21 22 22 21 21
33 33 33 33 33 33 33 33 33 33 34 34 34 33 33 33 33 32 32 31 31 30 30 29 28 28 27 26 25 25 24 23 23 22 23 23 23 23 23 24 25 27 29 31 32 33 35 36 37 37 37 36 34 32 30 28 27 27 27 27 27 26 25 24 23 22 20 19 19 18 17 17 16 15 14 14 16 17 18 19 20 21 21 21 22
32 32 33 32 32 33 33 33 33 33 33 32 32 32 31 31 30 30 30 29 28 28 27 26 25 25 24 23 23 22 22 22 22 22 22 22 23 23 24 25 26 28 30 31 32 33 35 35 35 34 33 31 29 27 25 24 24 24 24 24 24 23 22 21 21 21 20 20 19 19 19 18 17 16 16 16 17 17 19 20 21 22 23 24 25
31 32 32 32 32 32 32 31 31 31 31 30 30 30 30 29 29 28 27 27 26 25 25 24 23 23 22 22 21 21 21 21 21 22 22 22 22 23 24 25 27 29 29 30 31 33 34 34 32 30 28 27 25 23 22 21 21 21 21 21 21 20 20 19 19 18 18 18 18 19 19 19 18 18 18 18 19 20 21 21 22 22 22 22 21
30 30 31 31 31 31 30 30 30 29 29 29 29 29 28 28 27 27 26 25 25 24 23 22 22 21 21 21 21 21 21 21 21 21 21 21 22 23 24 26 27 28 28 29 31 32 32 31 29 27 25 24 22 21 20 20 19 19 19 19 18 18 17 17 16 16 16 16 16 16 17 17 17 17 18 18 18 18 17 17 16 15 14 13 13
29 29 29 29 29 29 29 29 29 29 28 28 28 28 27 27 26 26 25 25 24 23 22 21 21 21 20 20 21 21 21 21 21 21 21 21 22 23 25 26 27 27 28 29 30 31 31 29 26 24 23 22 21 20 19 19 19 18 18 17 17 16 15 15 14 14 14 14 13 13 13 13 13 13 12 12 12 11 11 11 11 11 12 12 13
28 28 28 28 28 28 28 28 28 28 28 28 27 27 27 27 26 26 25 24 23 22 21 21 21 21 21 21 21 20 20 20 20 20 21 22 22 23 25 25 26 26 27 27 29 30 29 28 25 23 21 21 20 19 19 19 18 18 17 17 16 15 14 13 13 12 12 12 11 11 11 11 10 10 10 9 10 11 12 13 14 15 15 16 17
26 26 27 27 27 27 27 27 27 27 27 27 27 27 27 27 26 26 25 24 23 22 21 21 22 22 22 21 21 20 20 20 20 21 21 22 22 23 24 24 25 25 25 26 27 28 28 27 25 23 21 20 19 19 19 19 18 18 17 16 15 15 14 13 13 12 12 12 12 12 12 12 12 12 12 12 13 14 14 15 16 17 17 18 19
Wind_Direction
261 261 262 265 265 259 254 254 254 247 236 232 239 247 249 249 249 248 243 239 239 242 244 244 244 247 250 248 244 240 239 240 239 239 242 247 252 256 258 260 261 263 265 266 265 265 267 270 272 273 273 272 270 269 269 270 270 272 274 277 279 279 279 281 281 279 278 278 277 275 274 274 273 271 270 271 273 276 279 282 284 287 288 290 293
264 260 260 266 266 257 253 254 248 238 232 235 243 247 248 252 253 251 246 243 244 245 244 244 244 245 244 242 240 240 242 244 245 247 250 252 256 259 261 262 263 263 263 262 262 264 266 270 272 274 274 274 272 272 273 274 274 274 275 276 277 276 277 279 279 279 279 279 278 277 275 273 273 273 274 275 276 276 277 278 280 282 284 286 288
268 263 262 264 261 252 252 252 239 229 232 238 242 244 247 251 251 248 247 246 246 245 244 243 243 242 241 241 243 246 248 250 252 254 254 255 257 261 264 266 265 263 261 260 262 264 266 268 270 271 272 273 275 277 278 277 276 275 274 274 275 275 276 277 276 277 280 280 279 278 276 275 275 276 277 277 276 275 275 275 276 278 281 283 285
268 266 267 267 264 254 251 252 243 238 241 241 239 241 245 247 247 245 245 244 244 245 245 245 245 245 245 246 248 252 253 255 254 254 255 256 259 263 266 267 265 261 258 259 262 264 266 267 268 268 270 273 277 279 280 279 277 275 274 273 273 274 276 277 277 278 279 278 277 276 276 276 277 277 278 278 276 275 275 275 275 277 280 282 283
267 266 268 272 275 264 253 252 249 245 247 243 236 237 242 245 246 244 244 244 244 246 248 249 249 249 250 252 254 255 255 254 253 253 254 256 260 264 265 264 263 260 258 259 261 264 268 270 272 273 274 275 276 277 279 279 278 276 276 274 273 273 273 274 275 277 278 277 276 275 276 277 278 278 279 279 278 277 277 278 278 279 281 284 283
266 264 265 271 279 268 251 248 247 244 245 244 239 237 239 243 244 244 246 247 246 247 249 250 250 250 252 254 255 255 254 251 250 251 253 257 261 264 264 263 262 259 258 259 262 267 272 276 278 279 279 279 278 279 280 281 280 278 277 276 274 274 274 273 273 274 276 278 278 278 280 281 280 280 280 281 281 280 280 281 281 282 283 282 282
266 266 266 271 275 266 252 248 245 240 240 243 244 243 240 240 240 242 245 247 247 248 248 250 251 253 255 257 258 258 255 250 248 251 254 258 262 263 263 261 259 257 259 262 268 273 277 279 280 281 280 280 280 281 281 281 280 279 277 276 275 276 276 275 275 274 274 276 278 280 282 283 283 283 281 280 281 282 281 280 281 282 282 279 278
269 269 269 271 271 262 250 246 243 239 239 242 246 248 245 242 241 241 243 245 247 247 248 250 253 255 258 260 261 262 260 256 251 250 253 258 261 262 261 259 255 255 259 265 272 277 279 280 280 279 277 277 278 280 281 282 282 280 278 277 276 276 276 276 276 276 275 276 278 280 281 282 283 283 282 281 281 281 281 280 279 279 280 277 275
276 272 267 267 266 257 248 246 246 245 244 245 247 248 248 246 244 244 244 246 247 248 249 252 254 256 258 260 261 263 264 262 255 250 251 255 259 260 260 258 255 255 260 268 275 279 280 281 279 276 273 273 275 277 280 282 283 283 282 281 278 276 275 275 275 276 277 278 279 280 281 281 280 280 283 286 285 282 281 281 280 279 279 277 276
277 270 266 266 260 254 252 251 250 249 247 247 248 247 246 244 246 248 247 248 249 249 251 253 255 257 258 259 260 263 265 264 258 253 251 253 255 256 256 255 254 254 260 268 276 280 281 281 278 274 271 271 272 276 279 280 281 282 283 281 280 277 275 274 274 274 276 277 278 279 281 280 280 280 283 286 286 283 281 282 283 282 280 279 278
258 251 262 266 258 253 255 254 252 250 249 249 249 246 243 244 247 250 249 249 250 250 251 253 255 257 258 259 260 262 265 264 260 255 253 253 253 254 254 253 253 255 259 267 276 282 284 284 282 278 274 272 275 278 279 280 281 281 281 279 278 276 275 274 274 275 276 276 277 278 279 280 280 280 280 281 280 278 280 282 283 282 280 279 279
251 247 257 260 255 253 254 252 250 249 249 250 248 244 243 245 248 249 249 250 251 251 252 255 257 258 259 260 261 262 262 261 261 259 257 256 255 253 254 254 254 256 260 267 275 281 282 283 285 285 281 278 278 279 280 281 282 280 279 278 276 274 273 273 274 275 275 276 276 277 277 278 278 277 277 277 275 274 278 282 282 281 280 280 279
257 253 254 253 250 250 248 247 249 249 248 249 248 243 243 246 247 248 251 252 253 254 255 256 258 259 259 260 262 261 259 259 261 261 261 260 257 254 254 255 256 258 262 267 270 271 273 273 275 283 287 285 282 281 281 283 284 282 281 279 277 276 275 276 277 277 276 276 277 278 278 279 279 278 278 277 274 274 278 280 281 282 283 283 282
257 255 253 251 251 248 245 246 249 248 245 245 244 243 245 247 247 249 252 254 257 259 258 256 257 258 259 260 260 259 258 258 260 262 263 264 262 258 254 253 254 257 261 265 265 264 266 265 263 268 275 278 282 285 286 285 283 281 280 280 280 279 279 281 281 280 280 280 281 281 281 280 279 277 277 276 275 277 279 281 282 283 283 283 283
254 252 249 253 254 248 243 244 245 244 242 239 239 242 244 245 244 245 251 256 260 261 259 256 256 258 260 263 264 262 260 258 259 261 260 260 261 262 262 260 260 259 259 260 261 261 263 264 264 264 263 264 270 277 281 282 281 280 281 282 282 282 282 283 282 281 282 283 284 284 283 283 282 280 279 278 278 280 281 281 282 282 283 282 281
256 253 251 258 258 246 239 240 241 239 237 236 237 238 238 238 240 243 249 256 258 257 256 256 258 258 257 258 259 258 256 256 257 256 254 253 255 259 263 264 262 258 254 254 257 261 264 266 267 267 265 266 267 267 270 275 278 279 280 281 281 283 284 285 283 282 282 283 283 283 283 283 283 283 282 282 281 281 281 280 281 282 282 281 282
258 257 257 262 264 253 242 238 235 232 232 233 233 233 234 237 240 242 247 251 255 257 258 258 257 255 252 250 251 252 253 254 255 254 253 252 253 255 256 257 255 252 250 252 256 260 263 264 265 265 265 266 267 267 269 272 274 275 277 279 280 282 283 283 283 282 281 281 281 281 280 280 281 281 281 281 281 281 280 281 282 282 282 282 285
262 261 262 262 264 264 259 252 244 238 235 234 233 234 239 245 247 248 248 250 254 257 256 254 253 252 253 254 255 255 255 255 254 255 254 255 256 257 256 255 253 251 251 252 255 257 259 261 263 263 262 261 264 267 270 272 272 272 275 277 278 278 279 279 279 280 280 280 280 280 279 278 279 279 280 279 279 280 280 280 282 283 284 284 283
265 262 262 263 263 264 262 259 255 249 245 243 243 244 248 251 252 250 249 251 255 255 251 249 251 251 252 254 255 255 254 252 252 253 255 256 257 258 259 258 255 253 253 254 257 259 261 263 264 264 264 264 266 268 271 271 270 270 273 275 275 276 277 278 278 278 277 277 277 277 276 276 276 276 276 277 277 278 279 280 280 280 279 278 275
269 267 264 263 261 260 259 258 256 253 250 249 249 249 249 247 243 242 243 246 250 253 252 251 250 249 250 251 251 251 250 249 249 251 253 255 258 261 262 262 260 260 260 262 265 267 268 269 269 269 270 271 271 271 271 271 270 270 272 274 274 274 275 277 278 278 277 277 276 276 275 276 275 274 274 274 274 275 277 279 278 277 275 273 273
269 270 269 266 263 260 258 257 255 254 253 251 249 248 247 244 240 239 241 244 248 252 255 255 252 252 253 254 253 251 250 251 252 254 256 258 259 260 262 262 263 264 265 266 268 270 271 271 271 272 273 272 272 272 272 272 271 272 272 272 273 273 274 276 277 278 277 277 278 278 278 279 278 277 275 273 274 275 275 275 274 274 273 273 274
266 267 269 269 267 265 262 259 257 255 253 251 250 249 248 247 246 244 245 248 251 253 255 257 258 258 260 261 260 258 257 257 258 260 262 263 263 263 264 265 267 268 269 269 269 270 270 272 273 275 275 274 274 273 273 273 273 273 274 274 274 275 275 276 276 276 276 277 278 278 279 280 281 280 278 276 276 276 275 273 274 274 274 275 276
266 266 266 267 267 266 264 262 259 257 255 254 253 252 251 251 251 250 251 252 253 254 256 258 260 261 262 262 261 260 260 261 262 264 265 266 266 267 267 267 268 269 269 269 270 270 271 272 273 274 275 275 275 274 275 275 276 276 276 276 276 276 276 276 275 274 274 274 275 276 276 276 277 276 276 275 276 276 276 276 277 277 277 278 278
266 267 267 268 266 265 264 261 260 259 260 260 259 257 256 255 255 255 255 255 256 256 257 258 259 261 261 261 261 262 263 265 266 266 267 268 269 270 270 269 269 269 270 270 270 271 271 271 271 272 272 272 272 273 274 275 276 276 276 276 276 275 275 275 275 275 274 274 274 275 275 275 276 276 277 277 278 278 277 277 277 277 278 280 280
267 268 269 269 268 266 264 261 259 259 260 262 262 260 259 258 258 258 259 259 259 259 259 260 261 261 262 263 264 264 266 267 267 267 268 270 272 273 273 273 273 273 274 274 275 275 275 274 273 273 273 273 273 273 273 274 275 276 276 276 276 276 276 277 277 277 277 276 276 277 277 278 278 279 280 280 280 280 279 279 278 279 279 280 280
266 268 268 267 267 266 264 262 261 259 259 259 259 258 257 258 260 261 261 260 261 260 260 261 261 261 262 263 264 266 267 268 267 268 271 272 273 274 275 275 275 276 276 276 276 277 276 275 273 273 272 273 273 273 274 274 275 276 277 277 277 278 278 278 278 278 279 278 278 278 278 279 279 279 280 280 279 279 279 279 279 279 279 279 279
261 261 260 260 261 261 261 261 260 259 257 256 255 254 255 257 260 262 262 261 261 261 262 262 262 263 264 265 266 268 269 270 271 273 274 275 275 276 276 277 277 278 278 278 277 277 276 276 275 274 274 274 274 275 275 276 277 278 279 279 279 279 280 280 280 280 280 280 280 280 280 280 280 280 280 280 280 279 278 277 277 276 276 276 276
254 252 252 252 253 255 256 256 257 256 256 254 252 251 252 255 259 261 263 264 263 262 262 263 263 264 265 266 268 269 270 271 273 275 277 277 278 279 279 280 281 281 282 282 281 281 281 280 280 280 279 278 278 278 278 278 279 279 280 280 280 280 280 280 280 280 280 280 280 280 279 279 280 280 280 280 281 281 280 280 279 278 277 276 276
250 249 249 250 252 254 256 257 257 257 257 257 256 256 256 257 259 262 264 265 265 264 264 265 266 266 266 267 269 270 271 272 274 276 278 279 280 281 282 283 284 284 285 285 285 285 284 284 284 284 283 282 282 281 281 281 281 281 281 280 281 281 281 281 281 280 280 280 280 279 279 279 279 279 280 280 280 281 281 281 281 281 280 279 278
250 250 251 253 255 257 259 260 260 260 260 260 261 261 262 262 263 264 265 265 265 265 266 266 267 268 269 270 272 274 275 276 278 280 281 283 284 284 285 285 286 286 286 286 286 286 286 286 286 285 285 284 284 285 285 284 284 283 282 282 282 282 282 282 282 283 283 283 282 282 282 281 281 281 281 281 281 281 281 281 281 281 280 280 280
252 253 254 256 257 259 260 260 260 260 260 261 261 262 263 264 264 264 264 264 265 265 267 268 270 273 275 276 278 280 281 282 283 284 286 286 287 287 287 287 287 287 287 287 287 287 287 287 287 287 286 286 286 286 286 286 285 285 284 285 285 284 285 285 285 285 285 284 284 283 283 283 283 283 282 282 282 282 282 281 281 281 280 280 280
255 256 257 257 258 259 260 260 260 260 261 261 262 263 263 264 265 266 266 267 269 270 273 275 277 278 280 281 283 283 284 285 285 286 286 286 286 287 287 287 287 288 288 288 288 288 288 288 288 287 287 287 287 287 287 287 287 287 287 287 287 286 286 286 286 286 286 286 285 284 284 284 284 284 284 283 283 282 282 281 281 281 281 281 282
259 259 260 260 261 261 262 263 263 264 265 265 266 266 267 268 269 271 272 273 274 276 277 278 279 280 281 282 283 283 284 284 284 285 285 285 285 286 286 286 287 287 287 287 287 287 287 287 287 287 287 287 288 288 288 288 288 288 288 288 288 288 288 287 287 288 287 287 287 286 286 286 286 285 285 284 283 283 282 281 281 281 282 283 284
259 260 261 262 263 264 265 266 266 267 268 269 270 271 272 272 273 274 275 275 276 277 278 279 280 280 281 282 282 282 283 283 283 284 284 285 285 286 286 287 287 287 287 288 288 288 288 288 288 288 288 289 289 289 289 289 289 289 290 290 290 290 290 291 291 291 290 289 288 288 288 288 287 286 285 284 283 282 281 281 282 282 283 283 283
258 258 259 260 261 263 264 265 266 267 268 269 270 271 272 272 273 274 274 275 276 277 278 279 279 279 280 280 281 281 282 282 283 284 284 285 286 287 287 288 288 288 288 288 288 288 289 289 289 289 289 290 290 290 290 291 291 291 292 292 292 293 294 294 294 293 292 291 290 290 290 289 287 286 284 283 282 281 281 281 282 282 282 281 280
256 257 258 258 260 261 263 264 265 266 267 268 269 270 271 271 272 273 274 275 276 277 278 279 279 280 280 281 281 282 283 284 284 285 286 287 287 288 288 288 288 288 288 288 288 289 289 289 290 290 290 291 291 292 293 293 294 294 295 295 295 295 296 296 296 295 294 294 293 292 291 289 287 286 284 282 281 281 281 281 280 278 276 274 274
255 256 258 259 261 262 263 264 265 266 267 269 270 271 272 273 275 276 276 277 278 278 279 279 280 280 281 282 282 283 284 285 286 287 287 287 288 288 288 288 288 288 288 289 289 290 290 291 291 292 293 294 295 296 296 297 297 298 298 298 298 298 298 299 299 298 297 296 295 294 293 292 290 287 284 282 281 281 281 280 278 275 271 268 269
259 260 262 264 265 266 267 268 269 270 272 273 274 274 275 276 276 277 277 277 278 278 279 279 279 280 281 282 283 284 285 286 287 287 287 288 288 288 288 288 289 289 289 290 290 291 292 293 294 295 296 297 298 298 299 299 299 299 300 300 301 301 302 302 301 300 299 299 300 299 298 296 294 292 289 286 284 283 282 281 279 277 274 272 273
265 266 267 269 270 270 271 272 273 274 274 275 275 275 275 275 275 275 276 276 277 277 278 279 280 281 282 283 284 285 286 287 287 287 287 287 287 287 288 288 289 289 290 291 292 294 295 296 297 298 298 299 299 299 300 300 301 301 302 303 303 304 304 303 303 302 304 306 305 302 299 298 299 300 298 294 289 286 284 281 278 275 272 272 273
267 268 269 270 271 271 272 272 273 272 272 272 272 272 272 272 273 273 274 275 276 277 278 279 280 281 283 284 285 285 286 286 286 286 287 287 287 288 288 289 290 291 293 294 295 297 297 298 299 299 300 300 300 301 301 302 303 303 304 304 305 305 305 305 306 307 309 310 306 297 291 291 292 290 288 286 283 278 274 272 273 273 272 273 274
268 268 269 269 269 269 269 269 268 268 268 268 268 268 269 270 272 273 274 275 276 278 278 279 280 281 282 283 284 284 285 285 286 287 287 288 288 289 290 292 293 294 295 296 298 299 300 301 301 301 302 302 302 302 303 304 304 304 304 304 305 306 306 307 308 309 311 314 311 300 288 281 280 278 275 273 271 268 267 269 272 273 274 275 277
265 266 266 266 266 266 265 265 264 264 265 265 266 267 268 270 271 273 274 275 276 277 278 279 279 280 281 282 283 284 285 285 286 286 287 288 289 291 292 293 294 295 297 299 300 302 302 303 303 303 303 303 303 304 304 304 303 303 303 303 305 307 307 308 309 310 311 317 321 315 298 287 285 284 279 272 264 260 265 271 274 276 278 280 280
262 262 262 261 261 261 262 262 262 263 264 265 265 266 268 269 271 272 273 274 275 276 277 278 279 280 281 282 283 284 285 285 285 286 287 288 289 290 291 293 295 297 300 302 303 303 304 304 304 305 305 305 305 304 303 302 301 301 301 302 305 307 307 307 308 310 310 313 317 314 302 294 291 287 278 268 260 260 267 273 276 279 282 282 281
259 259 259 259 259 260 260 261 262 263 264 265 266 267 268 269 270 271 272 273 274 275 275 277 278 279 281 282 282 283 283 283 284 285 286 287 288 290 292 294 297 300 303 304 305 306 306 306 307 307 307 306 305 303 302 300 299 299 300 302 306 307 306 303 303 305 308 309 309 306 302 300 295 287 274 263 260 264 271 276 279 281 282 282 282
257 257 258 258 259 259 260 260 261 262 263 264 265 266 267 268 268 269 270 271 272 273 274 275 277 278 279 280 280 280 280 281 282 283 285 287 288 291 293 296 300 303 305 306 307 308 309 310 310 310 309 307 306 304 302 300 299 300 302 305 308 310 308 304 300 300 300 302 303 304 305 305 302 294 280 269 267 270 274 277 279 282 284 285 286
255 256 256 257 257 258 259 259 260 261 262 263 263 264 264 265 265 266 267 268 269 270 272 274 275 276 276 276 276 277 278 279 281 283 285 287 289 292 295 299 303 305 307 308 310 311 313 314 314 313 311 310 308 306 304 303 303 304 307 310 313 314 313 309 305 302 298 296 295 296 298 299 299 295 289 283 281 280 280 280 282 283 285 286 287
256 256 256 256 257 257 258 258 259 260 260 260 260 260 261 261 262 263 264 265 267 268 270 270 271 271 271 272 273 275 276 278 281 283 285 288 290 294 299 303 306 307 309 310 312 315 317 318 317 315 314 312 309 305 304 305 308 311 314 317 319 320 319 317 313 309 304 299 295 292 291 290 290 289 287 285 283 282 282 283 284 285 287 289 291
257 257 257 256 257 256 257 257 257 256 256 256 257 257 258 259 260 261 262 264 265 265 265 265 266 266 267 269 271 273 275 278 280 282 285 288 292 297 302 306 308 309 310 312 315 319 321 321 319 317 316 314 309 304 303 306 312 317 321 323 325 325 324 322 319 316 313 309 304 299 296 293 291 290 289 288 288 288 290 292 295 298 304 310 314
257 257 256 256 256 255 255 254 254 254 254 254 255 256 256 257 258 259 261 261 261 261 261 261 262 263 264 266 269 271 274 277 279 282 286 290 295 300 304 307 309 310 311 314 318 322 324 324 321 318 317 315 311 304 302 305 310 317 322 326 329 331 332 332 330 329 326 324 321 318 315 313 309 306 303 302 303 307 311 316 318 320 322 322 321
257 257 256 256 256 255 254 253 253 253 253 254 255 255 256 257 257 258 258 258 258 257 257 257 258 258 259 262 265 268 272 275 278 282 287 292 297 302 306 308 309 311 313 317 321 325 327 327 323 320 319 318 315 310 306 305 308 314 319 324 328 331 335 337 338 338 338 336 335 334 333 332 331 328 326 326 326 326 326 324 323 321 320 318 317
258 257 257 257 257 256 255 254 254 254 254 255 255 256 256 256 256 256 256 256 255 255 255 255 255 254 254 256 260 264 269 273 278 283 288 293 297 302 305 308 309 312 315 319 323 327 330 329 326 323 322 321 320 317 312 309 307 309 313 317 321 325 328 331 333 334 334 334 333 332 331 331 330 327 324 322 320 319 318 317 317 317 317 315 314
Height
5753 5754 5753 5752 5752 5752 5754 5756 5758 5759 5761 5763 5765 5767 5768 5769 5769 5770 5770 5771 5773 5774 5775 5776 5777 5778 5779 5780 5780 5781 5783 5784 5785 5786 5787 5788 5788 5789 5789 5789 5790 5790 5790 5790 5790 5790 5790 5790 5790 5791 5791 5791 5791 5791 5791 5791 5792 5792 5791 5791 5792 5791 5792 5793 5792 5791 5792 5793 5792 5793 5793 5793 5793 5793 5792 5792 5792 5792 5791 5791 5791 5791 5791 5791 5791
5749 5751 5752 5752 5751 5751 5753 5755 5756 5757 5759 5761 5763 5765 5766 5767 5767 5768 5769 5770 5771 5773 5774 5775 5776 5777 5778 5778 5779 5780 5781 5782 5783 5784 5785 5786 5786 5787 5787 5788 5788 5788 5788 5788 5788 5788 5788 5788 5788 5788 5789 5789 5789 5789 5789 5789 5789 5789 5789 5790 5789 5789 5790 5791 5790 5789 5789 5790 5790 5790 5790 5790 5790 5790 5790 5790 5789 5789 5789 5789 5789 5789 5789 5789 5789
5744 5746 5747 5749 5751 5751 5752 5754 5756 5757 5758 5760 5761 5763 5763 5764 5765 5766 5767 5768 5770 5771 5772 5773 5774 5775 5776 5777 5777 5778 5779 5780 5781 5782 5783 5784 5784 5785 5785 5786 5786 5786 5786 5787 5786 5786 5786 5787 5787 5786 5786 5786 5786 5787 5787 5787 5787 5787 5787 5787 5787 5786 5787 5789 5788 5787 5787 5788 5788 5788 5788 5788 5788 5788 5787 5787 5787 5787 5787 5787 5787 5787 5787 5787 5787
5739 5740 5742 5745 5748 5749 5751 5753 5755 5756 5757 5758 5759 5760 5761 5761 5763 5765 5766 5767 5768 5769 5770 5771 5773 5774 5775 5775 5776 5776 5777 5778 5779 5780 5781 5782 5783 5783 5783 5784 5784 5784 5785 5785 5785 5785 5785 5785 5785 5785 5785 5784 5784 5785 5785 5785 5785 5785 5785 5785 5785 5785 5785 5786 5786 5786 5785 5785 5785 5785 5785 5785 5785 5785 5784 5784 5784 5784 5784 5785 5785 5784 5784 5785 5784
5737 5737 5738 5741 5744 5746 5748 5750 5752 5753 5754 5755 5756 5757 5758 5760 5762 5763 5764 5765 5766 5767 5768 5770 5771 5772 5773 5774 5774 5775 5775 5776 5777 5778 5779 5780 5781 5781 5781 5782 5782 5782 5782 5782 5782 5782 5782 5782 5782 5782 5783 5782 5782 5782 5782 5783 5783 5783 5783 5783 5783 5783 5783 5783 5784 5784 5783 5783 5783 5783 5782 5782 5782 5782 5782 5781 5782 5782 5782 5782 5782 5782 5782 5782 5781
5736 5736 5736 5738 5740 5742 5744 5747 5749 5751 5752 5752 5753 5754 5756 5758 5760 5761 5763 5764 5765 5765 5766 5768 5769 5770 5771 5771 5772 5773 5773 5774 5775 5776 5777 5778 5778 5779 5779 5779 5780 5780 5780 5780 5780 5780 5780 5780 5780 5780 5780 5780 5780 5780 5780 5780 5780 5780 5780 5780 5780 5780 5780 5780 5781 5781 5781 5780 5780 5781 5780 5779 5779 5779 5779 5779 5778 5779 5779 5779 5779 5779 5780 5780 5778
5734 5734 5735 5737 5738 5739 5741 5743 5746 5747 5749 5750 5751 5753 5754 5756 5757 5759 5760 5762 5763 5763 5764 5765 5766 5767 5768 5769 5770 5770 5771 5772 5773 5774 5774 5775 5776 5776 5777 5777 5777 5778 5778 5778 5778 5777 5778 5778 5778 5778 5778 5778 5778 5778 5778 5778 5778 5778 5778 5778 5778 5778 5778 5778 5778 5778 5778 5778 5778 5778 5778 5777 5776 5776 5777 5776 5776 5776 5776 5776 5776 5776 5777 5777 5776
5732 5733 5734 5735 5736 5737 5739 5741 5743 5745 5746 5748 5750 5752 5753 5754 5755 5756 5758 5759 5760 5761 5762 5762 5763 5764 5765 5766 5767 5767 5768 5770 5771 5772 5772 5772 5773 5774 5774 5775 5775 5775 5775 5775 5775 5775 5775 5775 5776 5776 5775 5775 5776 5776 5776 5776 5776 5776 5775 5775 5776 5776 5775 5775 5775 5774 5774 5775 5775 5775 5775 5775 5774 5773 5773 5774 5774 5773 5772 5773 5773 5773 5773 5774 5773
5731 5732 5732 5733 5734 5736 5738 5740 5741 5743 5744 5746 5747 5749 5750 5751 5753 5754 5756 5757 5757 5758 5759 5759 5760 5762 5762 5763 5764 5764 5766 5767 5768 5769 5769 5770 5771 5772 5772 5773 5773 5773 5773 5773 5773 5773 5773 5773 5773 5773 5773 5773 5773 5773 5773 5773 5773 5773 5773 5772 5772 5773 5772 5772 5772 5771 5771 5771 5771 5771 5772 5771 5771 5770 5769 5770 5770 5770 5769 5769 5769 5769 5769 5770 5770
5730 5729 5729 5731 5732 5734 5736 5738 5739 5740 5742 5743 5745 5746 5747 5749 5750 5751 5753 5753 5753 5755 5756 5756 5757 5759 5760 5760 5761 5762 5763 5764 5765 5766 5767 5768 5768 5769 5769 5770 5770 5770 5771 5771 5771 5771 5771 5771 5771 5771 5771 5771 5771 5771 5771 5771 5771 5771 5770 5770 5769 5769 5769 5768 5768 5768 5768 5768 5768 5768 5768 5767 5767 5767 5767 5766 5765 5765 5765 5765 5765 5764 5765 5765 5765
5730 5728 5727 5728 5730 5731 5734 5736 5736 5737 5739 5741 5742 5743 5744 5746 5747 5749 5750 5750 5751 5752 5752 5753 5755 5756 5756 5757 5758 5759 5760 5761 5762 5763 5764 5764 5765 5766 5766 5767 5767 5767 5767 5768 5768 5768 5768 5768 5768 5768 5768 5768 5768 5768 5768 5768 5768 5768 5767 5767 5766 5766 5765 5765 5765 5765 5764 5765 5764 5764 5764 5763 5763 5763 5763 5763 5762 5761 5761 5761 5761 5761 5760 5760 5760
5728 5727 5726 5726 5727 5729 5731 5733 5734 5735 5736 5737 5739 5740 5741 5743 5744 5746 5747 5747 5748 5749 5750 5751 5752 5753 5753 5754 5755 5757 5757 5758 5758 5760 5760 5761 5762 5762 5763 5763 5764 5764 5764 5764 5765 5765 5765 5765 5765 5766 5765 5765 5765 5766 5766 5765 5765 5764 5763 5763 5762 5762 5762 5762 5762 5762 5762 5761 5761 5760 5760 5760 5760 5760 5759 5759 5758 5757 5757 5756 5756 5756 5756 5755 5755
5723 5724 5724 5724 5725 5727 5728 5730 5731 5732 5733 5734 5736 5737 5738 5740 5741 5742 5743 5744 5745 5746 5747 5748 5748 5749 5750 5752 5753 5754 5754 5755 5756 5757 5757 5758 5758 5759 5759 5760 5760 5760 5761 5761 5761 5762 5762 5762 5763 5763 5762 5761 5761 5762 5762 5761 5760 5760 5759 5759 5758 5758 5758 5758 5759 5758 5758 5757 5757 5756 5756 5756 5756 5756 5755 5755 5755 5754 5753 5752 5752 5751 5751 5750 5750
5720 5721 5722 5722 5723 5724 5725 5727 5728 5730 5730 5731 5733 5734 5736 5737 5738 5740 5741 5741 5742 5743 5743 5744 5745 5746 5747 5749 5749 5750 5751 5752 5753 5754 5754 5754 5755 5755 5756 5756 5757 5757 5757 5758 5758 5758 5759 5759 5759 5760 5759 5758 5758 5758 5757 5757 5756 5755 5755 5755 5754 5754 5754 5755 5755 5754 5754 5753 5752 5752 5751 5751 5751 5751 5751 5751 5750 5750 5749 5748 5748 5746 5746 5746 5745
5718 5719 5720 5720 5721 5722 5723 5724 5725 5727 5728 5729 5730 5732 5733 5735 5736 5737 5739 5739 5739 5740 5740 5741 5742 5743 5744 5745 5746 5747 5748 5749 5749 5750 5751 5751 5751 5751 5751 5752 5753 5753 5754 5755 5755 5754 5755 5755 5756 5756 5756 5756 5755 5755 5755 5753 5751 5750 5751 5751 5750 5751 5751 5751 5751 5750 5749 5748 5748 5747 5746 5746 5746 5746 5746 5746 5745 5745 5744 5743 5742 5741 5741 5741 5740
5717 5718 5718 5719 5719 5720 5721 5722 5723 5724 5726 5727 5728 5729 5731 5733 5734 5735 5736 5736 5736 5737 5737 5738 5739 5740 5740 5741 5741 5743 5744 5744 5745 5746 5747 5747 5748 5748 5749 5749 5750 5750 5750 5751 5751 5751 5751 5752 5752 5752 5752 5752 5752 5752 5752 5750 5748 5748 5748 5747 5747 5747 5747 5747 5746 5746 5745 5744 5743 5743 5742 5742 5741 5741 5741 5740 5740 5740 5739 5738 5737 5736 5735 5735 5735
5716 5717 5717 5718 5718 5719 5719 5720 5721 5722 5724 5725 5726 5727 5729 5730 5731 5732 5732 5733 5733 5734 5735 5735 5736 5736 5737 5737 5738 5739 5740 5741 5742 5742 5743 5744 5744 5745 5746 5746 5746 5746 5747 5747 5747 5748 5748 5748 5747 5747 5747 5747 5747 5747 5747 5746 5746 5745 5744 5743 5743 5743 5742 5742 5741 5741 5740 5739 5738 5738 5738 5737 5737 5736 5736 5735 5734 5734 5733 5732 5731 5730 5730 5730 5730
5715 5715 5716 5716 5717 5717 5718 5719 5720 5721 5722 5722 5723 5725 5726 5726 5727 5728 5729 5730 5730 5731 5732 5732 5733 5733 5734 5734 5735 5736 5737 5737 5738 5739 5739 5740 5741 5742 5742 5743 5743 5743 5743 5743 5744 5744 5744 5743 5742 5742 5742 5742 5741 5741 5742 5742 5742 5741 5740 5739 5739 5738 5738 5737 5736 5736 5735 5734 5734 5733 5733 5732 5732 5731 5730 5730 5729 5728 5727 5726 5726 5726 5725 5725 5725
5713 5713 5714 5715 5715 5716 5717 5718 5719 5720 5721 5721 5721 5722 5723 5724 5725 5725 5726 5726 5727 5728 5729 5729 5730 5730 5731 5732 5732 5733 5733 5734 5735 5735 5736 5737 5738 5739 5739 5739 5739 5739 5739 5739 5740 5740 5740 5739 5738 5738 5738 5738 5737 5737 5737 5737 5737 5736 5735 5735 5734 5733 5733 5732 5732 5732 5730 5729 5729 5728 5727 5726 5726 5725 5724 5723 5723 5722 5721 5721 5721 5721 5720 5719 5718
5710 5711 5712 5713 5713 5714 5715 5715 5717 5718 5718 5719 5719 5720 5721 5721 5722 5722 5723 5723 5724 5724 5725 5726 5726 5727 5728 5729 5729 5730 5730 5731 5732 5732 5733 5734 5735 5735 5736 5735 5735 5736 5736 5735 5736 5736 5736 5735 5734 5734 5734 5733 5732 5731 5732 5732 5731 5731 5730 5730 5729 5728 5728 5727 5727 5726 5725 5724 5723 5722 5722 5721 5720 5719 5718 5717 5716 5716 5716 5715 5714 5714 5712 5711 5710
5708 5709 5709 5710 5711 5711 5712 5713 5714 5714 5715 5716 5717 5717 5718 5718 5719 5720 5720 5721 5721 5721 5722 5722 5723 5724 5724 5725 5726 5727 5727 5728 5729 5729 5730 5730 5731 5731 5732 5731 5731 5731 5731 5732 5732 5733 5732 5730 5729 5729 5728 5727 5727 5727 5726 5726 5726 5726 5725 5724 5724 5723 5722 5722 5721 5720 5719 5719 5718 5717 5716 5715 5714 5713 5712 5710 5710 5711 5710 5708 5706 5705 5704 5703 5702
5705 5706 5707 5707 5708 5708 5709 5710 5711 5711 5712 5713 5714 5714 5715 5715 5716 5717 5718 5718 5719 5719 5719 5719 5720 5720 5721 5722 5723 5724 5724 5725 5725 5725 5726 5726 5727 5727 5727 5727 5727 5727 5727 5727 5728 5728 5727 5725 5725 5724 5723 5722 5722 5721 5721 5721 5720 5720 5719 5719 5718 5717 5716 5716 5715 5714 5713 5712 5711 5711 5710 5709 5707 5706 5704 5703 5704 5705 5704 5700 5697 5695 5694 5693 5693
5702 5703 5704 5704 5705 5706 5706 5707 5707 5708 5709 5710 5710 5711 5712 5712 5713 5714 5715 5715 5715 5715 5716 5716 5717 5717 5718 5719 5719 5720 5720 5721 5721 5721 5721 5722 5722 5723 5723 5723 5722 5722 5722 5722 5722 5722 5721 5720 5720 5719 5718 5717 5717 5716 5715 5715 5714 5714 5713 5712 5711 5710 5709 5709 5708 5707 5706 5705 5704 5703 5702 5701 5699 5697 5696 5696 5698 5698 5696 5692 5689 5686 5684 5683 5683
5699 5699 5700 5701 5701 5702 5703 5704 5704 5705 5705 5706 5707 5707 5708 5709 5710 5710 5711 5711 5712 5712 5713 5713 5713 5714 5714 5714 5715 5716 5716 5717 5717 5716 5717 5717 5717 5717 5717 5717 5717 5717 5717 5717 5717 5716 5715 5715 5714 5713 5713 5712 5711 5711 5710 5709 5708 5707 5707 5706 5704 5703 5702 5701 5700 5699 5698 5698 5696 5694 5693 5692 5690 5688 5686 5687 5688 5688 5687 5684 5681 5678 5676 5674 5673
5695 5696 5696 5697 5697 5698 5699 5700 5701 5701 5702 5702 5703 5703 5704 5704 5705 5706 5707 5707 5707 5708 5708 5709 5709 5709 5710 5710 5710 5711 5712 5712 5711 5711 5712 5712 5711 5711 5711 5711 5711 5711 5711 5710 5710 5709 5709 5708 5707 5707 5706 5706 5705 5704 5704 5703 5701 5700 5699 5698 5697 5696 5694 5693 5692 5691 5690 5689 5687 5685 5684 5682 5680 5678 5677 5677 5677 5676 5675 5674 5672 5670 5668 5666 5664
5691 5692 5692 5693 5693 5694 5695 5695 5696 5697 5697 5698 5698 5699 5699 5700 5701 5701 5702 5702 5703 5703 5704 5704 5705 5705 5706 5706 5705 5706 5708 5706 5704 5705 5706 5706 5705 5705 5705 5705 5704 5704 5704 5704 5703 5703 5702 5702 5701 5701 5700 5699 5698 5697 5696 5695 5694 5693 5691 5690 5689 5687 5686 5685 5683 5682 5681 5679 5678 5676 5675 5673 5671 5669 5667 5666 5666 5665 5665 5664 5663 5661 5659 5657 5655
5688 5688 5689 5689 5690 5690 5690 5691 5691 5692 5693 5693 5694 5694 5695 5695 5696 5697 5697 5698 5698 5699 5699 5699 5700 5700 5701 5700 5700 5702 5703 5701 5699 5700 5700 5700 5700 5700 5699 5699 5699 5698 5698 5698 5697 5697 5696 5695 5695 5694 5693 5692 5691 5690 5689 5688 5686 5685 5683 5681 5680 5679 5677 5675 5674 5673 5671 5669 5667 5666 5664 5663 5661 5659 5657 5656 5654 5654 5654 5654 5653 5651 5650 5647 5645
5683 5684 5685 5685 5686 5686 5686 5687 5687 5688 5688 5688 5689 5689 5690 5690 5691 5692 5693 5693 5693 5694 5694 5694 5695 5696 5696 5695 5695 5697 5697 5695 5694 5695 5695 5694 5694 5694 5693 5693 5693 5692 5692 5691 5690 5690 5689 5688 5687 5686 5685 5684 5683 5683 5681 5680 5679 5677 5675 5673 5671 5669 5668 5666 5665 5663 5661 5660 5657 5655 5653 5652 5651 5649 5647 5646 5644 5642 5642 5642 5642 5641 5639 5637 5635
5679 5680 5680 5681 5681 5681 5682 5682 5683 5684 5684 5684 5685 5685 5685 5686 5686 5687 5688 5688 5689 5689 5689 5690 5690 5690 5690 5690 5690 5692 5691 5690 5690 5690 5689 5689 5689 5688 5688 5687 5687 5686 5685 5684 5683 5682 5681 5680 5679 5678 5677 5675 5674 5674 5673 5672 5670 5667 5665 5663 5662 5660 5658 5656 5655 5653 5651 5649 5647 5644 5642 5642 5640 5638 5637 5635 5633 5632 5631 5630 5629 5628 5626 5624 5622
5674 5675 5676 5676 5677 5677 5677 5678 5678 5679 5680 5680 5680 5681 5681 5681 5682 5682 5683 5684 5684 5684 5685 5685 5685 5685 5685 5685 5685 5685 5685 5685 5684 5684 5683 5683 5683 5682 5682 5681 5680 5680 5678 5677 5676 5675 5674 5673 5672 5670 5668 5666 5665 5664 5664 5662 5660 5657 5654 5653 5652 5650 5648 5646 5645 5643 5641 5638 5636 5634 5632 5630 5629 5628 5627 5625 5623 5621 5620 5619 5618 5616 5613 5612 5611
5670 5670 5671 5672 5672 5673 5673 5674 5674 5675 5675 5675 5676 5676 5677 5677 5677 5678 5678 5679 5679 5680 5680 5680 5680 5680 5679 5679 5679 5679 5679 5678 5678 5677 5677 5676 5676 5675 5674 5674 5673 5673 5671 5669 5668 5667 5666 5665 5663 5661 5659 5657 5656 5655 5654 5652 5649 5646 5644 5642 5641 5640 5639 5637 5635 5633 5631 5629 5626 5624 5621 5620 5619 5618 5617 5615 5612 5611 5609 5608 5606 5604 5602 5602 5601
5666 5666 5667 5667 5668 5669 5669 5670 5670 5670 5671 5671 5672 5672 5672 5673 5673 5673 5674 5674 5674 5674 5674 5674 5674 5674 5673 5673 5673 5672 5672 5672 5671 5671 5670 5669 5669 5668 5667 5667 5666 5665 5663 5662 5660 5659 5658 5657 5654 5652 5650 5648 5647 5647 5645 5642 5640 5637 5635 5633 5631 5631 5630 5628 5626 5624 5622 5619 5616 5613 5612 5611 5609 5608 5607 5604 5602 5601 5599 5597 5595 5594 5593 5592 5591
5662 5662 5663 5663 5664 5664 5664 5665 5665 5666 5666 5666 5667 5667 5668 5668 5668 5668 5669 5669 5669 5669 5669 5668 5668 5668 5667 5667 5667 5666 5666 5666 5666 5665 5664 5663 5662 5661 5661 5660 5659 5657 5656 5654 5653 5651 5650 5649 5647 5644 5642 5640 5639 5638 5636 5634 5632 5629 5626 5624 5622 5621 5620 5619 5618 5616 5613 5610 5606 5604 5603 5602 5600 5599 5597 5595 5592 5591 5589 5588 5586 5585 5585 5584 5583
5658 5658 5659 5659 5659 5659 5660 5660 5660 5661 5661 5661 5662 5662 5663 5663 5663 5663 5663 5663 5663 5663 5663 5662 5662 5662 5662 5661 5661 5661 5660 5660 5659 5659 5658 5657 5656 5655 5654 5653 5651 5649 5648 5647 5645 5643 5642 5641 5639 5637 5635 5633 5631 5629 5627 5626 5624 5621 5619 5616 5614 5612 5610 5610 5609 5607 5604 5601 5598 5596 5594 5593 5591 5589 5587 5585 5583 5581 5580 5579 5578 5578 5577 5577 5576
5653 5654 5654 5655 5655 5655 5655 5656 5656 5656 5656 5657 5657 5657 5657 5658 5658 5658 5657 5658 5658 5658 5657 5656 5656 5657 5656 5656 5655 5655 5654 5654 5653 5652 5651 5650 5649 5648 5646 5645 5643 5642 5641 5639 5637 5636 5634 5633 5631 5630 5628 5625 5623 5622 5620 5618 5616 5614 5612 5609 5606 5604 5602 5602 5600 5598 5594 5592 5590 5588 5586 5583 5581 5579 5577 5575 5573 5572 5571 5571 5571 5570 5570 5569 5568
5649 5649 5650 5650 5650 5651 5651 5651 5651 5651 5652 5652 5652 5652 5652 5652 5652 5652 5652 5652 5652 5653 5652 5651 5650 5650 5650 5650 5649 5648 5648 5647 5646 5646 5645 5643 5642 5641 5639 5638 5637 5635 5634 5632 5631 5629 5628 5626 5624 5622 5620 5618 5616 5614 5612 5610 5608 5607 5604 5602 5600 5597 5596 5594 5592 5590 5586 5583 5581 5579 5577 5574 5571 5569 5567 5565 5564 5563 5563 5563 5563 5563 5563 5562 5562
5643 5644 5645 5645 5645 5645 5646 5646 5646 5646 5646 5646 5646 5646 5646 5647 5647 5646 5646 5646 5646 5647 5646 5646 5645 5644 5644 5644 5643 5642 5642 5641 5640 5639 5638 5637 5635 5634 5633 5632 5630 5629 5627 5626 5624 5623 5621 5619 5617 5616 5614 5612 5610 5608 5606 5604 5602 5600 5598 5596 5593 5591 5589 5587 5585 5582 5578 5575 5572 5570 5567 5564 5562 5560 5558 5557 5557 5557 5557 5557 5556 5556 5557 5557 5557
5638 5638 5639 5639 5639 5639 5639 5640 5640 5640 5640 5640 5640 5640 5641 5641 5641 5641 5641 5641 5641 5641 5641 5640 5640 5639 5638 5638 5637 5636 5636 5635 5634 5633 5632 5631 5630 5628 5627 5626 5624 5623 5621 5620 5618 5617 5615 5613 5612 5610 5608 5606 5604 5602 5600 5598 5596 5594 5592 5590 5587 5585 5583 5580 5577 5574 5571 5568 5565 5562 5559 5557 5555 5554 5553 5552 5552 5552 5553 5552 5552 5552 5552 5552 5552
5632 5633 5633 5633 5633 5633 5633 5634 5634 5634 5634 5634 5634 5635 5635 5636 5636 5636 5636 5636 5636 5635 5635 5634 5634 5633 5632 5632 5631 5630 5630 5629 5628 5627 5626 5625 5624 5623 5622 5620 5619 5617 5616 5614 5613 5611 5610 5608 5607 5605 5604 5602 5600 5597 5595 5593 5591 5589 5587 5584 5582 5579 5577 5574 5571 5568 5565 5562 5559 5557 5555 5553 5552 5551 5550 5550 5550 5550 5550 5550 5549 5549 5549 5549 5549
5626 5626 5627 5627 5627 5627 5628 5628 5628 5628 5629 5629 5629 5629 5630 5630 5631 5631 5631 5630 5630 5630 5630 5629 5628 5627 5627 5626 5626 5625 5624 5623 5623 5622 5621 5620 5619 5617 5616 5615 5614 5613 5611 5610 5608 5607 5605 5604 5602 5601 5599 5597 5595 5593 5590 5588 5586 5584 5581 5579 5577 5574 5572 5569 5566 5563 5560 5557 5555 5553 5552 5551 5550 5549 5549 5549 5549 5548 5548 5548 5547 5547 5546 5546 5546
5619 5620 5621 5621 5621 5621 5622 5622 5622 5623 5623 5623 5624 5624 5624 5624 5625 5625 5625 5625 5624 5624 5624 5623 5623 5622 5622 5621 5620 5620 5619 5618 5617 5617 5616 5615 5614 5613 5612 5610 5609 5608 5607 5606 5605 5603 5601 5600 5598 5596 5594 5593 5590 5588 5586 5583 5581 5579 5577 5574 5572 5570 5567 5564 5561 5559 5556 5554 5551 5549 5549 5549 5548 5548 5547 5547 5547 5546 5546 5545 5545 5544 5544 5544 5544
5613 5614 5615 5615 5615 5616 5616 5616 5616 5617 5617 5618 5618 5618 5619 5619 5619 5619 5619 5619 5619 5619 5618 5618 5617 5617 5616 5616 5615 5615 5614 5613 5613 5612 5611 5610 5609 5609 5608 5607 5606 5605 5604 5602 5601 5599 5597 5596 5594 5592 5590 5588 5585 5583 5581 5578 5576 5574 5572 5569 5567 5565 5562 5560 5557 5555 5554 5551 5549 5547 5546 5546 5546 5545 5545 5544 5544 5544 5543 5542 5542 5541 5541 5541 5540
5608 5608 5609 5609 5610 5610 5610 5611 5611 5611 5611 5612 5612 5613 5613 5614 5614 5614 5614 5614 5614 5613 5613 5612 5612 5612 5611 5611 5610 5610 5609 5609 5608 5608 5607 5606 5606 5605 5604 5603 5602 5601 5600 5598 5597 5595 5593 5592 5589 5587 5585 5583 5580 5578 5576 5574 5571 5569 5567 5565 5563 5560 5558 5556 5554 5553 5551 5549 5547 5546 5545 5544 5544 5543 5542 5542 5541 5541 5540 5540 5539 5539 5538 5538 5537
5602 5603 5603 5604 5604 5605 5605 5605 5605 5606 5606 5606 5607 5607 5608 5608 5609 5608 5608 5608 5608 5608 5608 5607 5607 5607 5607 5606 5606 5605 5605 5605 5604 5604 5604 5603 5602 5602 5601 5600 5599 5597 5596 5595 5593 5591 5589 5587 5585 5583 5580 5578 5575 5573 5571 5569 5567 5565 5563 5561 5559 5557 5554 5553 5551 5550 5549 5547 5546 5544 5543 5542 5541 5541 5540 5540 5539 5539 5538 5537 5537 5536 5536 5535 5534
5596 5597 5598 5598 5599 5599 5600 5600 5600 5601 5601 5601 5601 5601 5602 5603 5603 5603 5603 5603 5604 5603 5603 5603 5603 5603 5602 5602 5602 5602 5601 5601 5601 5600 5600 5599 5599 5598 5597 5596 5595 5594 5592 5591 5589 5587 5585 5583 5580 5578 5575 5573 5571 5569 5567 5565 5564 5562 5560 5558 5555 5553 5551 5550 5548 5547 5546 5545 5544 5543 5542 5541 5539 5539 5538 5537 5537 5536 5536 5535 5534 5534 5533 5532 5532
5591 5592 5592 5593 5594 5594 5594 5595 5595 5596 5596 5596 5596 5596 5597 5598 5598 5599 5599 5599 5599 5599 5599 5599 5599 5599 5599 5599 5598 5598 5598 5598 5597 5597 5597 5596 5595 5595 5594 5593 5592 5590 5589 5587 5585 5583 5581 5579 5576 5574 5571 5569 5567 5565 5563 5562 5560 5559 5557 5555 5552 5550 5548 5547 5545 5544 5543 5542 5542 5541 5540 5539 5538 5537 5536 5535 5534 5534 5533 5532 5532 5531 5530 5529 5528
5586 5587 5587 5588 5588 5589 5589 5590 5590 5591 5591 5591 5592 5592 5592 5593 5594 5594 5595 5595 5595 5595 5595 5595 5595 5595 5595 5595 5595 5595 5595 5594 5594 5594 5593 5593 5592 5591 5591 5590 5588 5587 5585 5584 5582 5580 5577 5575 5572 5570 5567 5565 5563 5562 5561 5559 5558 5556 5554 5552 5550 5548 5546 5545 5543 5542 5541 5540 5539 5538 5537 5536 5535 5534 5533 5533 5532 5531 5530 5529 5529 5527 5526 5525 5524
5582 5582 5583 5583 5584 5584 5585 5585 5586 5586 5586 5587 5587 5588 5588 5589 5590 5590 5590 5591 5591 5591 5592 5592 5592 5592 5592 5592 5592 5591 5591 5591 5591 5590 5590 5590 5589 5588 5587 5586 5585 5584 5582 5581 5579 5577 5574 5572 5569 5567 5565 5563 5561 5560 5558 5557 5556 5554 5552 5550 5548 5546 5545 5543 5542 5540 5539 5538 5537 5535 5534 5534 5533 5532 5531 5530 5529 5528 5528 5527 5526 5524 5523 5522 5521
5577 5578 5578 5579 5579 5580 5581 5581 5581 5582 5582 5583 5583 5583 5584 5585 5585 5586 5587 5587 5587 5588 5588 5588 5588 5588 5588 5588 5588 5588 5588 5588 5588 5587 5587 5587 5586 5585 5584 5583 5582 5581 5579 5578 5576 5574 5571 5569 5566 5564 5562 5560 5559 5557 5556 5555 5553 5552 5550 5548 5547 5545 5543 5542 5540 5539 5538 5536 5535 5534 5533 5532 5531 5530 5529 5528 5528 5527 5526 5525 5524 5523 5522 5520 5519
5573 5574 5574 5574 5575 5576 5576 5577 5577 5578 5578 5578 5579 5579 5580 5581 5581 5582 5583 5583 5584 5584 5585 5585 5585 5585 5585 5585 5585 5585 5585 5585 5585 5584 5584 5584 5583 5582 5581 5580 5579 5578 5576 5575 5573 5571 5569 5566 5564 5562 5560 5558 5557 5555 5554 5552 5551 5550 5548 5547 5545 5544 5542 5541 5540 5538 5537 5536 5535 5534 5533 5532 5531 5530 5529 5528 5527 5526 5525 5524 5523 5522 5520 5519 5518
5569 5570 5570 5570 5571 5571 5572 5573 5573 5574 5574 5574 5575 5575 5576 5577 5577 5578 5579 5579 5580 5581 5581 5581 5582 5582 5582 5582 5582 5582 5582 5582 5582 5581 5581 5581 5580 5579 5578 5577 5576 5575 5573 5572 5570 5568 5566 5564 5562 5560 5558 5556 5554 5553 5552 5550 5549 5548 5547 5545 5544 5543 5541 5540 5539 5538 5537 5535 5534 5533 5532 5531 5530 5529 5528 5527 5526 5525 5524 5523 5521 5520 5519 5518 5517